Weather History for Grand Canyon, AZ

Change the Weather History Date:

Friday, November 8, 2013

  Actual Average Record
Temperature  
Mean Temperature 40 °F -  
Max Temperature 62 °F 51 °F 71 °F (2006)
Min Temperature 17 °F 22 °F 3 °F (2011)
Degree Days  
Heating Degree Days 26    
Moisture  
Dew Point 9 °F    
Average Humidity 39    
Maximum Humidity 68    
Minimum Humidity 12    
Precipitation  
Precipitation 0.00 in - - ()
Sea Level Pressure  
Sea Level Pressure 30.18 in    
Wind  
Wind Speed 2 mph (WSW)    
Max Wind Speed 14 mph    
Max Gust Speed 18 mph    
Visibility 10 miles    
Events      
Averages and records for this station are not official NWS values.
T = Trace of Precipitation, MM = Missing Value Source: NWS Daily Summary

Daily Weather History Graph

Daily Weather History Graph

Search for Another Location

Airport:

Trip Planner

Search our weather history database for the weather conditions in past years. The results will help you decide how hot, cold, wet, or windy it might be!

Date:

Astronomy

Nov. 08, 2013 Rise Set
Actual Time 6:58 AM MST 5:26 PM MST
Civil Twilight 6:31 AM MST 5:52 PM MST
Nautical Twilight 6:00 AM MST 6:23 PM MST
Astronomical Twilight 5:30 AM MST 6:53 PM MST
Moon 11:56 AM MST (11/8) 10:50 PM MST (11/8)
Length of Visible Light 11h 21m
Length of Day
10h 27m
Waxing Crescent, 34% of the Moon is Illuminated
Nov 8
Waxing Crescent
Nov 9
First Quarter
Nov 17
Full
Nov 25
Last Quarter
Dec 2
New

Hourly Weather History & Observations

Time (MST) Temp. Windchill Dew Point Humidity Pressure Visibility Wind Dir Wind Speed Gust Speed Precip Events Conditions
12:54 AM 26.1 °F - 10.9 °F 53% 30.18 in 10.0 mi Calm Calm - N/A   Clear
1:54 AM 24.1 °F - 10.9 °F 57% 30.19 in 10.0 mi Calm Calm - N/A   Clear
2:54 AM 21.9 °F - 10.0 °F 60% 30.18 in 10.0 mi Calm Calm - N/A   Clear
3:54 AM 21.0 °F - 10.0 °F 63% 30.19 in 10.0 mi Calm Calm - N/A   Clear
4:54 AM 19.0 °F - 9.0 °F 65% 30.23 in 10.0 mi Calm Calm - N/A   Clear
5:54 AM 17.1 °F - 8.1 °F 68% 30.27 in 10.0 mi Calm Calm - N/A   Clear
6:54 AM 18.0 °F - 8.1 °F 65% 30.29 in 10.0 mi Calm Calm - N/A   Clear
7:54 AM 25.0 °F 20.7 °F 9.0 °F 51% 30.29 in 10.0 mi NE 3.5 mph - N/A   Clear
8:54 AM 42.1 °F - 12.0 °F 29% 30.25 in 10.0 mi Calm Calm - N/A   Clear
9:54 AM 54.0 °F - 9.0 °F 17% 30.19 in 10.0 mi WSW 8.1 mph - N/A   Clear
10:54 AM 55.9 °F - 10.9 °F 17% 30.19 in 10.0 mi SSW 8.1 mph - N/A   Clear
11:54 AM 59.0 °F - 10.9 °F 15% 30.15 in 10.0 mi SSW 6.9 mph - N/A   Clear
12:54 PM 61.0 °F - 8.1 °F 12% 30.10 in 10.0 mi WSW 8.1 mph - N/A   Clear
1:54 PM 61.0 °F - 10.9 °F 14% 30.09 in 10.0 mi WSW 13.8 mph 18.4 mph N/A   Clear
2:54 PM 62.1 °F - 10.9 °F 13% 30.08 in 10.0 mi West 8.1 mph - N/A   Clear
3:54 PM 62.1 °F - 9.0 °F 12% 30.07 in 10.0 mi WSW 9.2 mph - N/A   Clear
4:54 PM 59.0 °F - 7.0 °F 13% 30.10 in 10.0 mi West 6.9 mph - N/A   Clear
5:54 PM 39.9 °F - 10.0 °F 29% 30.19 in 10.0 mi Calm Calm - N/A   Clear
6:54 PM 32.0 °F - 10.0 °F 40% 30.25 in 10.0 mi Calm Calm - N/A   Clear
7:54 PM 28.9 °F - 9.0 °F 43% 30.24 in 10.0 mi Calm Calm - N/A   Clear
8:54 PM 26.1 °F - 8.1 °F 47% 30.17 in 10.0 mi Calm Calm - N/A   Clear
9:54 PM 25.0 °F - 7.0 °F 46% 30.14 in 9.0 mi Calm Calm - N/A   Clear
10:54 PM 23.0 °F - 7.0 °F 50% 30.15 in 10.0 mi Calm Calm - N/A   Clear
11:54 PM 24.1 °F - 7.0 °F 48% 30.13 in 10.0 mi Calm Calm - N/A   Clear